Project,Study,Ord_Occ,Event_Num,Cast_ID,Date_Time_UTC,Date_Time_PST,Lat_Dec,Lon_Dec,Sta_ID,Line,Sta,Depth,Pressure,PrQ,Temp1,Temp1Q,Temp2,Temp2Q,TempAve,Salt1,Salt1Q,Salt1_Corr,Salt2,Salt2Q,Salt2_Corr,SaltAve_Corr,Ox1,Ox1Q,Ox1_CruiseCorr,Ox1_StaCorr,Ox2,Ox2Q,Ox2_CruiseCorr,Ox2_StaCorr,OxAve_StaCorr,Ox1uM,Ox1uM_CruiseCorr,Ox1uM_StaCorr,Ox2uM,Ox2uM_CruiseCorr,Ox2uM_StaCorr,OxAveuM_StaCorr,FluorV,FluorQ,EstChl_CruiseCorr,EstChl_StaCorr,ISUSV,ISUSQ,EstNO3_CruiseCorr,EstNO3_StaCorr,SigThetaTS1,SigThetaTS1Q,SigThetaTS2,SigThetaTS2Q,BAT,XMiss,TransQ,pH,pHQ,SPAR,SPARQ,PAR,PARQ,PoT1,PoT2,DynHt,SVA,OxSat1,OxSat2,BTL_Depth,BTL_Temp,SaltB,OxB,OxBuM,Chl-a,Phaeo,NO3,NO2,NH4,PO4,SIL
CalCOFI,2105SH,013,,2105_013u,06-May-2021 20:04:04,06-May-2021 12:04:04,30.51352,-122.25866,093.3 100.0,093.3,100.0,519.000,523.239,,5.7587,,5.7027,,5.7307,34.3075,,34.3087,34.2678,,34.2697,34.2892,0.2765,,0.3553,,0.3107,,0.3812,,,12.023,15.0676,58.5116,13.513,18.1134,17.2361,37.8739,0.0369,,,,0.5958,,0.0000,,27.0411,,27.0167,,,,,,,,,,,5.7140,5.6583,0.9224,107.953,3.962,4.445,,,,,,,,,,,,
CalCOFI,2105SH,013,,2105_013u,06-May-2021 20:04:07,06-May-2021 12:04:07,30.51352,-122.25866,093.3 100.0,093.3,100.0,518.000,522.229,,5.7800,,5.8186,,5.7993,34.2849,,34.2861,34.2760,,34.2779,34.2820,0.2627,,0.3408,,0.3098,,0.3803,,,11.423,14.4404,57.7137,13.470,17.4654,17.1918,37.4528,0.0354,,,,0.5958,,0.0000,,27.0207,,27.0089,,,,,,,,,,,5.7354,5.7738,0.9224,109.893,3.765,4.443,,,,,,,,,,,,
CalCOFI,2105SH,013,,2105_013u,06-May-2021 20:04:08,06-May-2021 12:04:08,30.51352,-122.25866,093.3 100.0,093.3,100.0,517.000,521.220,,5.7943,,5.8400,,5.8172,34.2798,,34.2810,34.2777,,34.2796,34.2803,0.2516,,0.3292,,0.3095,,0.3800,,,10.939,13.9344,57.0701,13.461,16.9427,17.1826,37.1264,0.0353,,,,0.5957,,0.0000,,27.0149,,27.0075,,,,,,,,,,,5.7497,5.7952,0.9224,110.440,3.606,4.442,,,,,,,,,,,,
CalCOFI,2105SH,013,,2105_013u,06-May-2021 20:05:02,06-May-2021 12:05:02,30.51348,-122.25864,093.3 100.0,093.3,100.0,516.000,520.210,,5.8219,,5.8138,,5.8179,34.2755,,34.2767,34.2783,,34.2802,34.2785,0.2110,,0.2868,,0.3006,,0.3708,,,9.174,12.0893,54.7229,13.071,15.0365,16.7810,35.7520,0.0363,,,,0.5936,,0.0000,,27.0080,,27.0112,,,,,,,,,,,5.7773,5.7692,0.9292,111.107,3.026,4.311,516,5.822,34.2744,0.392,17.05,,,41.60,0.00,0.00,3.16,79.74
CalCOFI,2105SH,013,,2105_013u,06-May-2021 20:05:27,06-May-2021 12:05:27,30.51348,-122.25862,093.3 100.0,093.3,100.0,515.000,519.201,,5.8183,,5.8243,,5.8213,34.2754,,34.2766,34.2783,,34.2802,34.2784,0.2354,,0.3123,,0.3010,,0.3712,,,10.238,13.2016,56.1378,13.090,16.1856,16.8006,36.4692,0.0357,,,,0.5934,,0.0000,,27.0084,,27.0099,,,,,,,,,,,5.7738,5.7798,0.9323,111.055,3.377,4.319,,,,,,,,,,,,
CalCOFI,2105SH,013,,2105_013u,06-May-2021 20:05:27,06-May-2021 12:05:27,30.51348,-122.25862,093.3 100.0,093.3,100.0,514.000,518.192,,5.8195,,5.8252,,5.8224,34.2739,,34.2751,34.2785,,34.2804,34.2778,0.2360,,0.3129,,0.3010,,0.3712,,,10.264,13.2288,56.1724,13.089,16.2137,16.7996,36.4860,0.0354,,,,0.5933,,0.0000,,27.0070,,27.0100,,,,,,,,,,,5.7751,5.7807,0.9322,111.170,3.386,4.318,,,,,,,,,,,,
CalCOFI,2105SH,013,,2105_013u,06-May-2021 20:05:28,06-May-2021 12:05:28,30.51348,-122.25861,093.3 100.0,093.3,100.0,513.000,517.182,,5.8205,,5.8266,,5.8236,34.2726,,34.2738,34.2784,,34.2803,34.2771,0.2356,,0.3125,,0.3009,,0.3711,,,10.244,13.2079,56.1458,13.087,16.1921,16.7975,36.4717,0.0349,,,,0.5933,,0.0000,,27.0059,,27.0097,,,,,,,,,,,5.7761,5.7822,0.9322,111.265,3.379,4.318,,,,,,,,,,,,
CalCOFI,2105SH,013,,2105_013u,06-May-2021 20:05:29,06-May-2021 12:05:29,30.51348,-122.25860,093.3 100.0,093.3,100.0,512.000,516.173,,5.8230,,5.8345,,5.8288,34.2698,,34.2710,34.2789,,34.2808,34.2759,0.2377,,0.3147,,0.3009,,0.3711,,,10.337,13.3051,56.2695,13.082,16.2925,16.7924,36.5310,0.0360,,,,0.5933,,0.0000,,27.0034,,27.0091,,,,,,,,,,,5.7787,5.7902,0.9322,111.490,3.410,4.317,,,,,,,,,,,,
CalCOFI,2105SH,013,,2105_013u,06-May-2021 20:05:30,06-May-2021 12:05:30,30.51348,-122.25860,093.3 100.0,093.3,100.0,511.000,515.163,,5.8336,,5.8480,,5.8408,34.2591,,34.2603,34.2781,,34.2800,34.2702,0.2440,,0.3213,,0.3007,,0.3709,,,10.611,13.5915,56.6339,13.076,16.5884,16.7862,36.7101,0.0358,,,,0.5933,,0.0000,,26.9935,,27.0068,,,,,,,,,,,5.7894,5.8037,0.9322,112.413,3.501,4.316,,,,,,,,,,,,
CalCOFI,2105SH,013,,2105_013u,06-May-2021 20:05:32,06-May-2021 12:05:32,30.51348,-122.25860,093.3 100.0,093.3,100.0,510.000,514.154,,5.8376,,5.8529,,5.8453,34.2549,,34.2561,34.2780,,34.2799,34.2680,0.2396,,0.3167,,0.3006,,0.3708,,,10.419,13.3908,56.3785,13.073,16.3811,16.7831,36.5808,0.0355,,,,0.5933,,0.0000,,26.9897,,27.0061,,,,,,,,,,,5.7935,5.8087,0.9322,112.760,3.438,4.316,,,,,,,,,,,,
CalCOFI,2105SH,013,,2105_013u,06-May-2021 20:05:33,06-May-2021 12:05:33,30.51348,-122.25860,093.3 100.0,093.3,100.0,509.000,513.145,,5.8380,,5.8540,,5.8460,34.2546,,34.2558,34.2768,,34.2787,34.2673,0.2396,,0.3167,,0.3006,,0.3708,,,10.417,13.3887,56.3759,13.071,16.3789,16.7810,36.5785,0.0360,,,,0.5933,,0.0000,,26.9894,,27.0050,,,,,,,,,,,5.7939,5.8099,0.9322,112.776,3.437,4.315,,,,,,,,,,,,
CalCOFI,2105SH,013,,2105_013u,06-May-2021 20:05:33,06-May-2021 12:05:33,30.51348,-122.25860,093.3 100.0,093.3,100.0,508.000,512.135,,5.8404,,5.8539,,5.8472,34.2522,,34.2534,34.2778,,34.2797,34.2666,0.2395,,0.3166,,0.3005,,0.3707,,,10.416,13.3877,56.3746,13.069,16.3778,16.7790,36.5768,0.0353,,,,0.5934,,0.0000,,26.9872,,27.0058,,,,,,,,,,,5.7964,5.8099,0.9322,112.974,3.437,4.315,,,,,,,,,,,,
CalCOFI,2105SH,013,,2105_013u,06-May-2021 20:05:34,06-May-2021 12:05:34,30.51348,-122.25860,093.3 100.0,093.3,100.0,507.000,511.126,,5.8429,,5.8674,,5.8552,34.2498,,34.2510,34.2782,,34.2801,34.2656,0.2395,,0.3166,,0.3004,,0.3706,,,10.414,13.3856,56.3719,13.063,16.3757,16.7728,36.5724,0.0350,,,,0.5934,,0.0000,,26.9850,,27.0045,,,,,,,,,,,5.7990,5.8234,0.9322,113.170,3.436,4.314,,,,,,,,,,,,
CalCOFI,2105SH,013,,2105_013u,06-May-2021 20:05:35,06-May-2021 12:05:35,30.51348,-122.25862,093.3 100.0,093.3,100.0,506.000,510.117,,5.8505,,5.8751,,5.8628,34.2427,,34.2439,34.2776,,34.2795,34.2617,0.2394,,0.3165,,0.3003,,0.3705,,,10.411,13.3825,56.3679,13.058,16.3724,16.7677,36.5678,0.0354,,,,0.5934,,0.0000,,26.9784,,27.0030,,,,,,,,,,,5.8067,5.8312,0.9322,113.784,3.436,4.313,,,,,,,,,,,,
CalCOFI,2105SH,013,,2105_013u,06-May-2021 20:05:36,06-May-2021 12:05:36,30.51348,-122.25862,093.3 100.0,093.3,100.0,505.000,509.107,,5.8613,,5.8740,,5.8677,34.2324,,34.2336,34.2784,,34.2803,34.2570,0.2393,,0.3164,,0.3003,,0.3705,,,10.408,13.3793,56.3639,13.057,16.3692,16.7666,36.5653,0.0353,,,,0.5934,,0.0000,,26.9689,,27.0038,,,,,,,,,,,5.8176,5.8301,0.9322,114.677,3.435,4.313,,,,,,,,,,,,
CalCOFI,2105SH,013,,2105_013u,06-May-2021 20:05:37,06-May-2021 12:05:37,30.51348,-122.25862,093.3 100.0,093.3,100.0,504.000,508.098,,5.8682,,5.8819,,5.8751,34.2264,,34.2276,34.2768,,34.2787,34.2532,0.2393,,0.3164,,0.3002,,0.3703,,,10.405,13.3762,56.3599,13.053,16.3659,16.7625,36.5612,0.0351,,,,0.5935,,0.0000,,26.9633,,27.0015,,,,,,,,,,,5.8245,5.8381,0.9322,115.197,3.435,4.312,,,,,,,,,,,,
CalCOFI,2105SH,013,,2105_013u,06-May-2021 20:05:38,06-May-2021 12:05:38,30.51347,-122.25862,093.3 100.0,093.3,100.0,503.000,507.088,,5.8726,,5.8843,,5.8785,34.2227,,34.2239,34.2759,,34.2778,34.2509,0.2392,,0.3163,,0.3001,,0.3702,,,10.403,13.3741,56.3573,13.051,16.3638,16.7604,36.5589,0.0365,,,,0.5936,,0.0000,,26.9599,,27.0004,,,,,,,,,,,5.8290,5.8406,0.9322,115.511,3.434,4.311,,,,,,,,,,,,
CalCOFI,2105SH,013,,2105_013u,06-May-2021 20:05:38,06-May-2021 12:05:38,30.51346,-122.25862,093.3 100.0,093.3,100.0,502.000,506.079,,5.8748,,5.8853,,5.8801,34.2213,,34.2225,34.2767,,34.2786,34.2506,0.2392,,0.3163,,0.3035,,0.3738,,,10.401,13.3720,56.3546,13.199,16.3616,16.9128,36.6337,0.0362,,,,0.5937,,0.0000,,26.9585,,27.0010,,,,,,,,,,,5.8313,5.8417,0.9322,115.634,3.434,4.361,,,,,,,,,,,,
CalCOFI,2105SH,013,,2105_013u,06-May-2021 20:05:39,06-May-2021 12:05:39,30.51346,-122.25862,093.3 100.0,093.3,100.0,501.000,505.070,,5.8762,,5.8837,,5.8800,34.2207,,34.2219,34.2757,,34.2776,34.2498,0.2408,,0.3179,,0.3118,,0.3824,,,10.471,13.4452,56.4477,13.558,16.4372,17.2824,36.8651,0.0354,,,,0.5938,,0.0000,,26.9578,,27.0003,,,,,,,,,,,5.8327,5.8402,0.9322,115.681,3.457,4.479,,,,,,,,,,,,
CalCOFI,2105SH,013,,2105_013u,06-May-2021 20:05:40,06-May-2021 12:05:40,30.51346,-122.25860,093.3 100.0,093.3,100.0,500.000,504.060,,5.8772,,5.8835,,5.8804,34.2206,,34.2218,34.2754,,34.2773,34.2496,0.2458,,0.3232,,0.3100,,0.3805,,,10.689,13.6731,56.7376,13.482,16.6727,17.2042,36.9709,0.0354,,,,0.5939,,0.0000,,26.9576,,27.0001,,,,,,,,,,,5.8338,5.8401,0.9322,115.691,3.529,4.454,,,,,,,,,,,,
CalCOFI,2105SH,013,,2105_013u,06-May-2021 20:05:41,06-May-2021 12:05:41,30.51346,-122.25860,093.3 100.0,093.3,100.0,499.000,503.051,,5.8805,,5.8901,,5.8853,34.2188,,34.2200,34.2736,,34.2755,34.2478,0.2443,,0.3216,,0.3101,,0.3806,,,10.624,13.6051,56.6512,13.484,16.6025,17.2063,36.9288,0.0365,,,,0.5940,,0.0000,,26.9557,,26.9979,,,,,,,,,,,5.8372,5.8468,0.9322,115.856,3.508,4.455,,,,,,,,,,,,
CalCOFI,2105SH,013,,2105_013u,06-May-2021 20:05:42,06-May-2021 12:05:42,30.51346,-122.25860,093.3 100.0,093.3,100.0,498.000,502.042,,5.8858,,5.8939,,5.8899,34.2155,,34.2167,34.2724,,34.2743,34.2455,0.2456,,0.3229,,0.3158,,0.3865,,,10.682,13.6658,56.7283,13.735,16.6651,17.4647,37.0965,0.0352,,,,0.5942,,0.0000,,26.9525,,26.9964,,,,,,,,,,,5.8426,5.8506,0.9322,116.156,3.527,4.538,,,,,,,,,,,,
CalCOFI,2105SH,013,,2105_013u,06-May-2021 20:05:43,06-May-2021 12:05:43,30.51346,-122.25860,093.3 100.0,093.3,100.0,497.000,501.032,,5.8920,,5.8985,,5.8953,34.2118,,34.2130,34.2708,,34.2727,34.2429,0.2440,,0.3213,,0.3091,,0.3796,,,10.611,13.5915,56.6339,13.443,16.5884,17.1640,36.8990,0.0354,,,,0.5944,,0.0000,,26.9488,,26.9946,,,,,,,,,,,5.8489,5.8553,0.9322,116.495,3.504,4.442,,,,,,,,,,,,
CalCOFI,2105SH,013,,2105_013u,06-May-2021 20:05:43,06-May-2021 12:05:43,30.51346,-122.25860,093.3 100.0,093.3,100.0,496.000,500.023,,5.8951,,5.8981,,5.8966,34.2112,,34.2124,34.2710,,34.2729,34.2427,0.2434,,0.3206,,0.3086,,0.3790,,,10.585,13.5644,56.5993,13.420,16.5603,17.1404,36.8699,0.0354,,,,0.5947,,0.0000,,26.9479,,26.9948,,,,,,,,,,,5.8520,5.8550,0.9322,116.572,3.496,4.435,,,,,,,,,,,,
CalCOFI,2105SH,013,,2105_013u,06-May-2021 20:05:44,06-May-2021 12:05:44,30.51346,-122.25860,093.3 100.0,093.3,100.0,495.000,499.014,,5.8960,,5.8988,,5.8974,34.2125,,34.2137,34.2706,,34.2725,34.2431,0.2434,,0.3206,,0.3127,,0.3833,,,10.583,13.5623,56.5966,13.599,16.5582,17.3247,36.9607,0.0360,,,,0.5950,,0.0000,,26.9488,,26.9944,,,,,,,,,,,5.8531,5.8558,0.9322,116.477,3.495,4.494,,,,,,,,,,,,
CalCOFI,2105SH,013,,2105_013u,06-May-2021 20:05:45,06-May-2021 12:05:45,30.51346,-122.25860,093.3 100.0,093.3,100.0,494.000,498.004,,5.8965,,5.8996,,5.8981,34.2142,,34.2154,34.2701,,34.2720,34.2437,0.2433,,0.3205,,0.3198,,0.3906,,,10.581,13.5602,56.5940,13.905,16.5560,17.6397,37.1169,0.0360,,,,0.5953,,0.0000,,26.9501,,26.9939,,,,,,,,,,,5.8536,5.8567,0.9322,116.341,3.495,4.595,,,,,,,,,,,,
CalCOFI,2105SH,013,,2105_013u,06-May-2021 20:05:46,06-May-2021 12:05:46,30.51346,-122.25860,093.3 100.0,093.3,100.0,493.000,496.995,,5.8967,,5.9005,,5.8986,34.2160,,34.2172,34.2699,,34.2718,34.2445,0.2433,,0.3205,,0.3148,,0.3855,,,10.580,13.5591,56.5927,13.688,16.5549,17.4163,37.0045,0.0354,,,,0.5957,,0.0000,,26.9514,,26.9936,,,,,,,,,,,5.8539,5.8577,0.9322,116.199,3.495,4.524,,,,,,,,,,,,
CalCOFI,2105SH,013,,2105_013u,06-May-2021 20:05:47,06-May-2021 12:05:47,30.51346,-122.25860,093.3 100.0,093.3,100.0,492.000,495.986,,5.8971,,5.9015,,5.8993,34.2174,,34.2186,34.2681,,34.2700,34.2443,0.2445,,0.3218,,0.3136,,0.3842,,,10.631,13.6124,56.6605,13.635,16.6100,17.3617,37.0111,0.0364,,,,0.5962,,0.0000,,26.9525,,26.9921,,,,,,,,,,,5.8544,5.8588,0.9322,116.085,3.511,4.506,,,,,,,,,,,,
CalCOFI,2105SH,013,,2105_013u,06-May-2021 20:05:48,06-May-2021 12:05:48,30.51346,-122.25860,093.3 100.0,093.3,100.0,491.000,494.976,,5.8974,,5.9011,,5.8993,34.2191,,34.2203,34.2686,,34.2705,34.2454,0.2471,,0.3245,,0.3239,,0.3949,,,10.748,13.7348,56.8161,14.083,16.7364,17.8230,37.3196,0.0358,,,,0.5967,,0.0000,,26.9538,,26.9925,,,,,,,,,,,5.8548,5.8584,0.9322,115.952,3.550,4.654,,,,,,,,,,,,
CalCOFI,2105SH,013,,2105_013u,06-May-2021 20:05:49,06-May-2021 12:05:49,30.51346,-122.25860,093.3 100.0,093.3,100.0,490.000,493.967,,5.8979,,5.9008,,5.8994,34.2210,,34.2222,34.2689,,34.2708,34.2465,0.2490,,0.3265,,0.3401,,0.4117,,,10.829,13.8194,56.9238,14.791,16.8239,18.5519,37.7379,0.0357,,,,0.5974,,0.0000,,26.9552,,26.9928,,,,,,,,,,,5.8553,5.8582,0.9322,115.802,3.577,4.888,,,,,,,,,,,,
CalCOFI,2105SH,013,,2105_013u,06-May-2021 20:05:50,06-May-2021 12:05:50,30.51346,-122.25860,093.3 100.0,093.3,100.0,489.000,492.958,,5.8982,,5.8995,,5.8989,34.2230,,34.2242,34.2637,,34.2656,34.2449,0.2517,,0.3293,,0.3515,,0.4235,,,10.946,13.9417,57.0794,15.288,16.9502,19.0636,38.0715,0.0353,,,,0.5982,,0.0000,,26.9568,,26.9888,,,,,,,,,,,5.8558,5.8571,0.9322,115.643,3.616,5.052,,,,,,,,,,,,
CalCOFI,2105SH,013,,2105_013u,06-May-2021 20:05:51,06-May-2021 12:05:51,30.51346,-122.25860,093.3 100.0,093.3,100.0,488.000,491.948,,5.8861,,5.8813,,5.8837,34.2372,,34.2384,34.2559,,34.2578,34.2481,0.2482,,0.3257,,0.3586,,0.4308,,,10.793,13.7818,56.8759,15.593,16.7850,19.3776,38.1268,0.0354,,,,0.5992,,0.0000,,26.9695,,26.9848,,,,,,,,,,,5.8438,5.8390,0.9322,114.426,3.565,5.150,,,,,,,,,,,,
CalCOFI,2105SH,013,,2105_013u,06-May-2021 20:05:52,06-May-2021 12:05:52,30.51346,-122.25860,093.3 100.0,093.3,100.0,487.000,490.939,,5.8803,,5.8598,,5.8701,34.2448,,34.2460,34.2486,,34.2505,34.2483,0.2480,,0.3255,,0.3607,,0.4330,,,10.787,13.7755,56.8679,15.687,16.7785,19.4744,38.1712,0.0357,,,,0.6001,,0.0000,,26.9762,,26.9818,,,,,,,,,,,5.8381,5.8177,0.9322,113.772,3.562,5.178,,,,,,,,,,,,
CalCOFI,2105SH,013,,2105_013u,06-May-2021 20:05:52,06-May-2021 12:05:52,30.51346,-122.25860,093.3 100.0,093.3,100.0,486.000,489.930,,5.8783,,5.8715,,5.8749,34.2485,,34.2497,34.2532,,34.2551,34.2524,0.2480,,0.3255,,0.3638,,0.4362,,,10.785,13.7734,56.8653,15.819,16.7763,19.6103,38.2378,0.0364,,,,0.6009,,0.0000,,26.9794,,26.9839,,,,,,,,,,,5.8362,5.8294,0.9322,113.455,3.562,5.223,,,,,,,,,,,,
CalCOFI,2105SH,013,,2105_013u,06-May-2021 20:05:53,06-May-2021 12:05:53,30.51346,-122.25860,093.3 100.0,093.3,100.0,485.000,488.921,,5.8778,,5.8679,,5.8729,34.2505,,34.2517,34.2497,,34.2516,34.2517,0.2480,,0.3255,,0.3726,,0.4453,,,10.784,13.7724,56.8639,16.203,16.7753,20.0057,38.4348,0.0356,,,,0.6018,,0.0000,,26.9810,,26.9815,,,,,,,,,,,5.8358,5.8259,0.9322,113.292,3.561,5.350,,,,,,,,,,,,
CalCOFI,2105SH,013,,2105_013u,06-May-2021 20:05:54,06-May-2021 12:05:54,30.51346,-122.25860,093.3 100.0,093.3,100.0,484.000,487.911,,5.8786,,5.8679,,5.8733,34.2508,,34.2520,34.2468,,34.2487,34.2504,0.2479,,0.3254,,0.3748,,0.4476,,,10.782,13.7703,56.8613,16.301,16.7731,20.1066,38.4840,0.0354,,,,0.6026,,0.0000,,26.9811,,26.9793,,,,,,,,,,,5.8367,5.8260,0.9322,113.265,3.561,5.382,,,,,,,,,,,,
CalCOFI,2105SH,013,,2105_013u,06-May-2021 20:05:55,06-May-2021 12:05:55,30.51346,-122.25860,093.3 100.0,093.3,100.0,483.000,486.902,,5.8798,,5.8838,,5.8818,34.2503,,34.2515,34.2444,,34.2463,34.2489,0.2479,,0.3254,,0.3770,,0.4499,,,10.780,13.7682,56.8586,16.392,16.7709,20.2003,38.5295,0.0362,,,,0.6037,,0.0000,,26.9805,,26.9754,,,,,,,,,,,5.8380,5.8420,0.9322,113.308,3.560,5.414,,,,,,,,,,,,
CalCOFI,2105SH,013,,2105_013u,06-May-2021 20:05:56,06-May-2021 12:05:56,30.51346,-122.25860,093.3 100.0,093.3,100.0,482.000,485.893,,5.8857,,5.8900,,5.8879,34.2445,,34.2457,34.2417,,34.2436,34.2447,0.2495,,0.3270,,0.3778,,0.4507,,,10.849,13.8403,56.9504,16.430,16.8455,20.2394,38.5949,0.0357,,,,0.6050,,0.0000,,26.9753,,26.9725,,,,,,,,,,,5.8439,5.8482,0.9322,113.797,3.583,5.427,,,,,,,,,,,,
CalCOFI,2105SH,013,,2105_013u,06-May-2021 20:05:57,06-May-2021 12:05:57,30.51346,-122.25860,093.3 100.0,093.3,100.0,481.000,484.884,,5.8969,,5.8923,,5.8946,34.2330,,34.2342,34.2414,,34.2433,34.2388,0.2577,,0.3356,,0.3745,,0.4473,,,11.205,14.2125,57.4238,16.285,17.2299,20.0901,38.7570,0.0357,,,,0.6065,,0.0000,,26.9647,,26.9720,,,,,,,,,,,5.8552,5.8506,0.9322,114.787,3.702,5.380,,,,,,,,,,,,
CalCOFI,2105SH,013,,2105_013u,06-May-2021 20:05:58,06-May-2021 12:05:58,30.51346,-122.25860,093.3 100.0,093.3,100.0,480.000,483.874,,5.9019,,5.9017,,5.9018,34.2272,,34.2284,34.2409,,34.2428,34.2356,0.2525,,0.3302,,0.3778,,0.4507,,,10.980,13.9773,57.1246,16.431,16.9869,20.2404,38.6825,0.0366,,,,0.6078,,0.0000,,26.9595,,26.9703,,,,,,,,,,,5.8602,5.8601,0.9322,115.265,3.628,5.429,,,,,,,,,,,,
CalCOFI,2105SH,013,,2105_013u,06-May-2021 20:05:59,06-May-2021 12:05:59,30.51346,-122.25860,093.3 100.0,093.3,100.0,479.000,482.865,,5.9027,,5.9070,,5.9049,34.2257,,34.2269,34.2413,,34.2432,34.2351,0.2522,,0.3299,,0.3767,,0.4496,,,10.966,13.9627,57.1060,16.383,16.9718,20.1910,38.6485,0.0354,,,,0.6087,,0.0000,,26.9582,,26.9700,,,,,,,,,,,5.8612,5.8654,0.9322,115.380,3.623,5.414,,,,,,,,,,,,
CalCOFI,2105SH,013,,2105_013u,06-May-2021 20:06:00,06-May-2021 12:06:00,30.51346,-122.25860,093.3 100.0,093.3,100.0,478.000,481.856,,5.9059,,5.9295,,5.9177,34.2219,,34.2231,34.2421,,34.2440,34.2336,0.2521,,0.3297,,0.3723,,0.4450,,,10.964,13.9606,57.1033,16.191,16.9697,19.9933,38.5483,0.0362,,,,0.6095,,0.0000,,26.9548,,26.9678,,,,,,,,,,,5.8644,5.8880,0.9322,115.685,3.623,5.353,,,,,,,,,,,,
CalCOFI,2105SH,013,,2105_013u,06-May-2021 20:06:01,06-May-2021 12:06:01,30.51346,-122.25860,093.3 100.0,093.3,100.0,477.000,480.847,,5.9108,,5.9393,,5.9251,34.2165,,34.2177,34.2438,,34.2457,34.2317,0.2521,,0.3297,,0.3672,,0.4397,,,10.962,13.9585,57.1007,15.967,16.9675,19.7627,38.4317,0.0362,,,,0.6102,,0.0000,,26.9499,,26.9679,,,,,,,,,,,5.8694,5.8978,0.9322,116.138,3.622,5.280,,,,,,,,,,,,
CalCOFI,2105SH,013,,2105_013u,06-May-2021 20:06:01,06-May-2021 12:06:01,30.51346,-122.25860,093.3 100.0,093.3,100.0,476.000,479.837,,5.9255,,5.9658,,5.9457,34.2015,,34.2027,34.2448,,34.2467,34.2247,0.2520,,0.3296,,0.3642,,0.4366,,,10.958,13.9543,57.0953,15.838,16.9632,19.6299,38.3626,0.0355,,,,0.6110,,0.0000,,26.9362,,26.9654,,,,,,,,,,,5.8841,5.9243,0.9322,117.429,3.621,5.241,,,,,,,,,,,,
CalCOFI,2105SH,013,,2105_013u,06-May-2021 20:06:03,06-May-2021 12:06:03,30.51346,-122.25860,093.3 100.0,093.3,100.0,475.000,478.828,,5.9617,,5.9828,,5.9723,34.1655,,34.1667,34.2478,,34.2497,34.2082,0.2518,,0.3294,,0.3692,,0.4418,,,10.949,13.9449,57.0834,16.057,16.9535,19.8554,38.4694,0.0360,,,,0.6118,,0.0000,,26.9032,,26.9656,,,,,,,,,,,5.9203,5.9413,0.9322,120.558,3.621,5.316,,,,,,,,,,,,
CalCOFI,2105SH,013,,2105_013u,06-May-2021 20:06:04,06-May-2021 12:06:04,30.51346,-122.25860,093.3 100.0,093.3,100.0,474.000,477.819,,5.9961,,6.0035,,5.9998,34.1311,,34.1323,34.2476,,34.2495,34.1909,0.2515,,0.3291,,0.3740,,0.4468,,,10.941,13.9365,57.0727,16.265,16.9448,20.0695,38.5711,0.0359,,,,0.6126,,0.0000,,26.8717,,26.9629,,,,,,,,,,,5.9548,5.9620,0.9322,123.545,3.620,5.387,,,,,,,,,,,,
CalCOFI,2105SH,013,,2105_013u,06-May-2021 20:06:05,06-May-2021 12:06:05,30.51346,-122.25858,093.3 100.0,093.3,100.0,473.000,476.810,,6.0021,,6.0219,,6.0120,34.1247,,34.1259,34.2464,,34.2483,34.1871,0.2515,,0.3291,,0.3755,,0.4483,,,10.938,13.9334,57.0687,16.331,16.9416,20.1375,38.6031,0.0357,,,,0.6133,,0.0000,,26.8659,,26.9596,,,,,,,,,,,5.9608,5.9804,0.9322,124.085,3.619,5.411,,,,,,,,,,,,
CalCOFI,2105SH,013,,2105_013u,06-May-2021 20:06:06,06-May-2021 12:06:06,30.51344,-122.25858,093.3 100.0,093.3,100.0,472.000,475.801,,6.0053,,6.0360,,6.0207,34.1214,,34.1226,34.2438,,34.2457,34.1842,0.2514,,0.3290,,0.3814,,0.4545,,,10.936,13.9313,57.0661,16.586,16.9394,20.4000,38.7331,0.0368,,,,0.6138,,0.0000,,26.8629,,26.9558,,,,,,,,,,,5.9641,5.9946,0.9322,124.360,3.619,5.497,,,,,,,,,,,,
CalCOFI,2105SH,013,,2105_013u,06-May-2021 20:06:07,06-May-2021 12:06:07,30.51344,-122.25858,093.3 100.0,093.3,100.0,471.000,474.791,,6.0090,,6.0295,,6.0193,34.1178,,34.1190,34.2446,,34.2465,34.1828,0.2514,,0.3290,,0.3837,,0.4568,,,10.934,13.9292,57.0634,16.686,16.9373,20.5030,38.7832,0.0360,,,,0.6141,,0.0000,,26.8596,,26.9572,,,,,,,,,,,5.9679,5.9882,0.9322,124.662,3.618,5.530,,,,,,,,,,,,
CalCOFI,2105SH,013,,2105_013u,06-May-2021 20:06:07,06-May-2021 12:06:07,30.51344,-122.25858,093.3 100.0,093.3,100.0,470.000,473.782,,6.0134,,6.0430,,6.0282,34.1136,,34.1148,34.2417,,34.2436,34.1792,0.2513,,0.3289,,0.3864,,0.4596,,,10.931,13.9261,57.0594,16.805,16.9340,20.6255,38.8425,0.0358,,,,0.6145,,0.0000,,26.8557,,26.9532,,,,,,,,,,,5.9724,6.0017,0.9322,125.018,3.618,5.571,,,,,,,,,,,,
CalCOFI,2105SH,013,,2105_013u,06-May-2021 20:06:08,06-May-2021 12:06:08,30.51344,-122.25858,093.3 100.0,093.3,100.0,469.000,472.773,,6.0183,,6.0526,,6.0355,34.1097,,34.1109,34.2414,,34.2433,34.1771,0.2513,,0.3289,,0.3862,,0.4594,,,10.929,13.9240,57.0568,16.794,16.9319,20.6142,38.8355,0.0351,,,,0.6148,,0.0000,,26.8520,,26.9517,,,,,,,,,,,5.9773,6.0114,0.9322,125.361,3.617,5.568,,,,,,,,,,,,
CalCOFI,2105SH,013,,2105_013u,06-May-2021 20:06:09,06-May-2021 12:06:09,30.51344,-122.25858,093.3 100.0,093.3,100.0,468.000,471.764,,6.0353,,6.0598,,6.0476,34.0945,,34.0957,34.2396,,34.2415,34.1686,0.2512,,0.3288,,0.3891,,0.4624,,,10.924,13.9187,57.0501,16.920,16.9265,20.7439,38.8970,0.0356,,,,0.6151,,0.0000,,26.8378,,26.9494,,,,,,,,,,,5.9944,6.0186,0.9322,126.695,3.617,5.611,,,,,,,,,,,,
CalCOFI,2105SH,013,,2105_013u,06-May-2021 20:06:10,06-May-2021 12:06:10,30.51344,-122.25858,093.3 100.0,093.3,100.0,467.000,470.755,,6.0494,,6.0608,,6.0551,34.0830,,34.0842,34.2399,,34.2418,34.1630,0.2511,,0.3287,,0.3876,,0.4609,,,10.919,13.9135,57.0435,16.855,16.9211,20.6770,38.8603,0.0353,,,,0.6155,,0.0000,,26.8269,,26.9495,,,,,,,,,,,6.0085,6.0197,0.9322,127.722,3.616,5.590,,,,,,,,,,,,
CalCOFI,2105SH,013,,2105_013u,06-May-2021 20:06:11,06-May-2021 12:06:11,30.51344,-122.25858,093.3 100.0,093.3,100.0,466.000,469.745,,6.0582,,6.0642,,6.0612,34.0773,,34.0785,34.2389,,34.2408,34.1597,0.2506,,0.3282,,0.3916,,0.4650,,,10.900,13.8937,57.0182,17.032,16.9005,20.8592,38.9387,0.0366,,,,0.6160,,0.0000,,26.8213,,26.9483,,,,,,,,,,,6.0174,6.0233,0.9322,128.244,3.610,5.649,,,,,,,,,,,,
CalCOFI,2105SH,013,,2105_013u,06-May-2021 20:06:12,06-May-2021 12:06:12,30.51344,-122.25858,093.3 100.0,093.3,100.0,465.000,468.736,,6.0608,,6.0644,,6.0626,34.0782,,34.0794,34.2388,,34.2407,34.1601,0.2465,,0.3239,,0.3921,,0.4655,,,10.721,13.7065,56.7802,17.051,16.7072,20.8788,38.8295,0.0358,,,,0.6165,,0.0000,,26.8217,,26.9482,,,,,,,,,,,6.0201,6.0235,0.9322,128.200,3.551,5.655,,,,,,,,,,,,
CalCOFI,2105SH,013,,2105_013u,06-May-2021 20:06:14,06-May-2021 12:06:14,30.51344,-122.25858,093.3 100.0,093.3,100.0,464.000,467.727,,6.0630,,6.0670,,6.0650,34.0793,,34.0805,34.2383,,34.2402,34.1604,0.2419,,0.3191,,0.3879,,0.4612,,,10.521,13.4975,56.5142,16.868,16.4912,20.6904,38.6023,0.0352,,,,0.6170,,0.0000,,26.8223,,26.9475,,,,,,,,,,,6.0223,6.0262,0.9322,128.129,3.485,5.595,,,,,,,,,,,,
CalCOFI,2105SH,013,,2105_013u,06-May-2021 20:06:15,06-May-2021 12:06:15,30.51344,-122.25858,093.3 100.0,093.3,100.0,463.000,466.718,,6.0639,,6.0661,,6.0650,34.0817,,34.0829,34.2378,,34.2397,34.1613,0.2464,,0.3238,,0.3895,,0.4628,,,10.718,13.7034,56.7762,16.939,16.7040,20.7635,38.7699,0.0358,,,,0.6175,,0.0000,,26.8240,,26.9472,,,,,,,,,,,6.0233,6.0254,0.9322,127.955,3.551,5.618,,,,,,,,,,,,
CalCOFI,2105SH,013,,2105_013u,06-May-2021 20:06:15,06-May-2021 12:06:15,30.51344,-122.25858,093.3 100.0,093.3,100.0,462.000,465.709,,6.0637,,6.0651,,6.0644,34.0851,,34.0863,34.2384,,34.2403,34.1633,0.2460,,0.3234,,0.3981,,0.4718,,,10.698,13.6825,56.7496,17.311,16.6824,21.1465,38.9481,0.0356,,,,0.6180,,0.0000,,26.8267,,26.9477,,,,,,,,,,,6.0232,6.0245,0.9322,127.686,3.544,5.741,,,,,,,,,,,,
CalCOFI,2105SH,013,,2105_013u,06-May-2021 20:06:16,06-May-2021 12:06:16,30.51344,-122.25858,093.3 100.0,093.3,100.0,461.000,464.700,,6.0635,,6.0707,,6.0671,34.0886,,34.0898,34.2375,,34.2394,34.1646,0.2463,,0.3237,,0.3984,,0.4721,,,10.711,13.6961,56.7669,17.325,16.6964,21.1609,38.9639,0.0361,,,,0.6185,,0.0000,,26.8296,,26.9463,,,,,,,,,,,6.0231,6.0301,0.9322,127.408,3.548,5.747,,,,,,,,,,,,